Regional Weather Roundup
Issued by NWS Newport/Morehead, NC

Current Version | Previous Version | Text Only | Print | Product List | Glossary On
Versions: 1 2 3 4 5 6 7 8 9 10 11 12 13 14 15 16 17 18 19 20 21 22 23 24 25 26 27 28 29 30 31 32 33 34 35 36 37 38 39 40 41 42 43 44 45 46 47 48 49 50
000
ASUS42 KMHX 250825
RWRMHX
WEATHER ROUNDUP FOR EASTERN NORTH CAROLINA
NATIONAL WEATHER SERVICE NEWPORT/MOREHEAD CITY NC
400 AM EDT THU MAY 25 2017

NOTE: "FAIR" INDICATES FEW OR NO CLOUDS BELOW 12,000 FEET
WITH NO SIGNIFICANT WEATHER AND/OR OBSTRUCTIONS TO VISIBILITY

NCZ015>017-031-032-045>047-102-103-250900-
NORTH COAST

CITY           SKY/WX    TMP DP  RH WIND       PRES   REMARKS
EDENTON        HVY RAIN  72  70  91 S13G18    29.53S
ELIZABETH CITY LGT RAIN  71  70  96 S12       29.52F
KITTY HAWK     CLOUDY    71  71 100 CALM      29.54F
MANTEO         CLOUDY    73  69  89 S15       29.55F

$$

NCZ045>047-081-094-103-104-250900-
CENTRAL COAST

CITY           SKY/WX    TMP DP  RH WIND       PRES   REMARKS
FRISCO         NOT AVBL

$$

NCZ095-097-098-100-101-250900-
SOUTHERN COAST

CITY           SKY/WX    TMP DP  RH WIND       PRES   REMARKS
BEAUFORT       MOCLDY    74  70  87 S20G32    29.54F
CEDAR ISLAND   NOT AVBL
JACKSONVILLE   LGT RAIN  70  70 100 SW7       29.53S
PINEY ISLAND   CLOUDY   N/A N/A N/A S13G21    29.54S
WILMINGTON     PTCLDY    73  68  84 SW15G21   29.54F


$$

NCZ011>013-027>030-043-044-078>080-089-090>093-098-250900-
COASTAL PLAIN

CITY           SKY/WX    TMP DP  RH WIND       PRES   REMARKS
AHOSKIE          N/A     68  67  98 S10       29.50R
CLINTON        MOCLDY    70  69  98 S3        29.53R
ELIZABETHTOWN  CLOUDY    72  68  88 SW12      29.54R
GOLDSBORO      CLOUDY    70  70 100 S8        29.50R
GREENVILLE     CLOUDY    70  70 100 S9        29.54S
HAVELOCK       CLOUDY    74  68  81 S15G28    29.54R
KENANSVILLE    CLOUDY    70  68  94 SW3       29.53R
KINSTON        CLOUDY    70  68  95 S8        29.52S
NEW BERN       LGT RAIN  70  69  97 S14       29.54S FOG
RICHLANDS      CLOUDY    69  68  96 S10       29.54R
ROCKY MOUNT    CLOUDY    69  69 100 S9        29.50R
WASHINGTON     CLOUDY    69  67  95 S6        29.52R
WHITEVILLE     CLOUDY    71  68  91 S9        29.54R

$$

AMZ130-135-150-152-154-156-158-170-250-252-270-ANZ085-086-088-633-658-670-250900-
MARINE OBSERVATIONS

STATION/POSITION TIME  TEMP    WIND        PRES    WAVE   SWELL
                       AIR SEA DIR/SP/G            HT/PER HT/PER
                 (UTC) (F)     (DEG/KT/KT) (MB)    (FT/S) (FT/S)
CHESAPEAKE LIGHT NOT AVBL
64 E VA BEACH    0750   69 64  170/ 14/ 14 1001.9    6/ 8   3/ 8
DUCK             0800   68 65  140/ 13/ 13 1000.0
2 E DUCK         0800      65                N/A     4/ 7
OREGON INLET     0800   72 68  150/ 12/ 16 1000.7
13E OREGON INLT  0748      65                N/A     5/ 8   5/ 8
HATTERAS CG      0800   74 74  170/ 16/ 24 1000.6
DIAMOND BUOY     0750   76 74  180/ 25/ 29 1001.3    6/ 6
CAPE LOOKOUT     0800   72     180/ 20/ 24 1000.2
BEAUFORT LAB     0800   74 72  200/ 20/ 26  999.5
30 SE NEW RVR IN 0808   76 75  220/ 21/ 29 1000.8
30 SE NEW RVR IN 0813      75                N/A     8/ 7   2/11
27 SE WRIGHTSVLE 0808   75 75  220/ 19/ 27 1000.2
5 SE WRIGHTSVLE  0808   75 74  220/ 14/ 25 1000.5
225 S CAPE HAT   0750   78 77  180/ 29/ 35 1006.6    9/ 8
41 SE CHARLESTON 0810   76 76  230/ 25/ 33 1001.5

$$




USA.gov is the U.S. government's official web portal to all federal, state and local government web resources and services.